This demonstration page uses our WeatherBlox Daily Observations layout. Learn more.

Left ArrowRight Arrow

34.74481, -87.66753

Hourly Observations for May 29, 2019

Temp ( °F °C ) Dew Point ( °F °C ) Humidity (%) Winds ( mph kmh ) Pressure ( in mb ) Visibility ( mi km ) Precip ( " mm )
12:53 am 00:53 Clear 77 25 68 20 74 74 S 5 7 29.85 1011 10 16 0.00 0.00
1:53 am 01:53 Clear 77 25 67 19.4 71 71 SSW 8 13 29.86 1011 10 16 0.00 0.00
2:53 am 02:53 Clear 75 23.9 67 19.4 76 76 SSW 6 9 29.88 1012 10 16 0.00 0.00
3:53 am 03:53 Clear 76 24.4 67 19.4 74 74 SSW 7 11 29.87 1012 10 16 0.00 0.00
4:53 am 04:53 Clear 75 23.9 67 19.4 76 76 SSW 6 9 29.87 1012 10 16 0.00 0.00
5:53 am 05:53 Sunny 74 23.3 67 19.4 79 79 SW 7 11 29.90 1013 10 16 0.00 0.00
6:53 am 06:53 Sunny 76 24.4 68 20 77 77 SW 5 7 29.92 1013 10 16 0.00 0.00
7:53 am 07:53 Mostly Sunny 79 26.1 69 20.6 72 72 SW 10 17 29.93 1014 10 16 0.00 0.00
8:27 am 08:27 Mostly Cloudy 81 27.2 69 20.6 67 67 WSW 12 19 29.93 1014 10 16 0.00 0.00
8:53 am 08:53 Mostly Cloudy 82 27.8 69 20.6 65 65 WSW 14 22 29.95 1014 10 16 0.00 0.00
9:36 am 09:36 Mostly Sunny 84 28.9 68 20 59 59 WSW 15 24 29.92 1013 10 16 0.00 0.00
9:53 am 09:53 Mostly Sunny 85 29.4 67 19.4 55 55 WSW 16 26 29.93 1014 10 16 0.00 0.00
10:53 am 10:53 Sunny 87 30.6 62 16.7 43 43 SW 16 26 29.93 1014 10 16 0.00 0.00
11:53 am 11:53 Sunny 90 32.2 59 15 35 35 W 16 26 29.92 1013 10 16 0.00 0.00
12:53 pm 12:53 Sunny 91 32.8 60 15.6 35 35 SW 9 15 29.89 1012 10 16 0.00 0.00
1:53 pm 13:53 Mostly Sunny 93 33.9 58 14.4 31 31 SW 17 28 29.88 1012 10 16 0.00 0.00
2:53 pm 14:53 Sunny 93 33.9 57 13.9 30 30 S 14 22 29.86 1011 10 16 0.00 0.00
3:15 pm 15:15 Mostly Sunny 92 33.3 55 12.8 29 29 SSW 14 22 29.85 1011 10 16 0.00 0.00
3:53 pm 15:53 Mostly Sunny 94 34.4 57 13.9 29 29 SW 13 20 29.85 1011 10 16 0.00 0.00
4:53 pm 16:53 Sunny 91 32.8 58 14.4 33 33 SSW 10 17 29.83 1010 10 16 0.00 0.00
5:53 pm 17:53 Partly Cloudy 91 32.8 59 15 34 34 WSW 12 19 29.83 1010 10 16 0.00 0.00
6:53 pm 18:53 Sunny 87 30.6 59 15 39 39 SW 8 13 29.84 1010 10 16 0.00 0.00
7:53 pm 19:53 Mostly Sunny 83 28.3 62 16.7 49 49 SSW 6 9 29.83 1010 10 16 0.00 0.00
8:53 pm 20:53 Clear 80 26.7 62 16.7 54 54 S 5 7 29.85 1011 10 16 0.00 0.00
9:53 pm 21:53 Clear 78 25.6 63 17.2 60 60 Calm 29.88 1012 10 16 0.00 0.00
10:53 pm 22:53 Partly Cloudy 77 25 65 18.3 66 66 Calm 29.91 1013 10 16 0.00 0.00
11:53 pm 23:53 Mostly Cloudy 78 25.6 65 18.3 64 64 Calm 29.90 1012 10 16 0.00 0.00

Powered by AerisWeather